Flag for U.S.A. Weather past 2 weeks in Grand Rapids, Michigan, U.S.A.

55 °F

Low clouds.

Feels Like: 52 °F
Forecast: 47 / 58 °F
Wind: 12 mph from Northeast

Location: Kent County International Airport

Current Time: Oct 4, 2015 at 3:37:52 PM

Latest Report: Oct 4, 2015 at 2:53 PM

Visibility: 10 mi

Pressure: 30.22 "Hg

Humidity: 90%

Dew point: 52 °F

Location of Grand RapidsLocation

Historic Weather in Grand Rapids — Graph


Grand Rapids temperature yesterday

Maximum temperature yesterday: 52 °F (at 12:53 PM)
Minimum temperature yesterday: 44 °F (at 5:02 PM)
Average temperature yesterday: 47 °F

Past Weeks' High & Low Weather Summary

High79 °F (Sep 23, 3:53 PM)100% (Sep 25, 7:53 AM)30.42 "Hg (Sep 25, 7:53 AM)
Low40 °F (Oct 1, 7:53 AM)35% (Sep 22, 5:53 PM)29.92 "Hg (Sep 29, 4:53 AM)
Average59 °F75%30.21 "Hg
* Reported Sep 19 1:53 PM — Oct 4 1:53 PM, Grand Rapids, Weather by CustomWeather, © 2015

Note: Actual official high and low records may vary slightly from our data, if they occured in-between our weather recording intervals... More about our weather records


Grand Rapids weather history for previous 24 hours

Time TempWeatherWind HumidityBarometerVisibility
1:53 PM
Sun, Oct 4
54 °FLow clouds.10 mph90%30.23 "Hg10 mi
12:53 PM53 °FLow clouds.14 mph93%30.23 "Hg10 mi
11:53 AM51 °FLow clouds.10 mph96%30.25 "Hg9 mi
10:53 AM50 °FFog.12 mph96%30.26 "Hg2 mi
9:53 AM49 °FFog.8 mph97%30.26 "Hg5 mi
8:53 AM48 °FLow clouds.8 mph96%30.25 "Hg10 mi
7:53 AM48 °FLow clouds.10 mph93%30.24 "Hg10 mi
6:53 AM47 °FLow clouds.10 mph97%30.23 "Hg9 mi
5:53 AM47 °FFog.9 mph97%30.23 "Hg4 mi
4:53 AM47 °FFog.12 mph93%30.22 "Hg4 mi
3:53 AM46 °FFog.10 mph96%30.23 "Hg3 mi
2:53 AM46 °FFog.12 mph93%30.23 "Hg6 mi
1:53 AM46 °FFog.14 mph93%30.22 "Hg5 mi
12:53 AM46 °FLight rain. Low clouds.13 mph93%30.24 "Hg10 mi
11:53 PM
Sat, Oct 3
45 °FLow clouds.14 mph93%30.26 "Hg10 mi
10:53 PM45 °FLight rain. Low clouds.17 mph93%30.26 "Hg7 mi
9:53 PM45 °FDrizzle. Overcast.15 mph90%30.27 "Hg10 mi
8:53 PM44 °FLight rain. Overcast.14 mph93%30.27 "Hg8 mi
7:53 PM45 °FLight rain. Fog.17 mph90%30.28 "Hg5 mi
6:53 PM44 °FLight rain. Mostly cloudy.18 mph93%30.28 "Hg9 mi
5:53 PM44 °FRain. Fog.17 mph93%30.27 "Hg2 mi
5:02 PM44 °FRain. Fog.16 mph93%30.27 "Hg2 mi
3:53 PM46 °FLight rain. Cloudy.14 mph86%30.27 "Hg10 mi
Weather by CustomWeather, © 2015

See weather overviewHow to use our weather pages